AV636 Weather Reports


Display with metric or nautical units.
time (UTC)temp
F
wind
direction
speed
MPH
gust
MPH
rain 1hr
in
rain 24hr
in
rain mn
in
humidity
%
barometer
mb
20260504234516 80 180 12.0 17.0 0.00 0.00 0.00 51 1001.1
20260504233515 80 180 13.0 20.0 0.00 0.00 0.00 50 1001.0
20260504232516 81 180 9.0 17.0 0.00 0.00 0.00 50 1001.2
20260504231516 81 180 11.0 16.0 0.00 0.00 0.00 49 1001.2
20260504230515 81 203 13.0 19.0 0.00 0.00 0.00 50 1001.1
20260504225515 81 203 9.0 14.0 0.00 0.00 0.00 49 1001.2
20260504224515 81 180 13.0 17.0 0.00 0.00 0.00 48 1001.1
20260504223515 82 180 14.0 21.0 0.00 0.00 0.00 47 1001.2
20260504222515 83 158 13.0 21.0 0.00 0.00 0.00 47 1001.1
20260504221515 84 180 12.0 16.0 0.00 0.00 0.00 46 1001.1
20260504220515 85 180 11.0 16.0 0.00 0.00 0.00 45 1001.0
20260504215535 85 158 9.0 13.0 0.00 0.00 0.00 45 1001.1
20260504214535 85 158 11.0 16.0 0.00 0.00 0.00 42 1001.2
20260504213515 86 180 9.0 12.0 0.00 0.00 0.00 42 1001.5
20260504212535 85 180 5.0 10.0 0.00 0.00 0.00 45 1001.4
20260504211636 84 180 4.0 6.0 0.00 0.00 0.00 46 1001.8
20260504210535 84 203 6.0 9.0 0.00 0.00 0.00 45 1001.8
20260504205515 84 180 5.0 8.0 0.00 0.00 0.00 43 1002.0
20260504204515 84 203 4.0 6.0 0.00 0.00 0.00 43 1002.1
20260504203535 84 113 1.0 1.0 0.00 0.00 0.00 40 1002.3
20260504202535 83 158 8.0 10.0 0.00 0.00 0.00 43 1002.6
20260504201515 83 180 6.0 7.0 0.00 0.00 0.00 48 1002.8
20260504200515 83 158 4.0 6.0 0.00 0.00 0.00 43 1002.7
20260504195515 82 203 4.0 5.0 0.00 0.00 0.00 46 1002.8
20260504194515 81 180 6.0 9.0 0.00 0.00 0.00 45 1003.2
20260504193535 81 225 7.0 11.0 0.00 0.00 0.00 46 1003.3
20260504192535 81 203 7.0 11.0 0.00 0.00 0.00 49 1003.4
20260504191517 80 225 4.0 6.0 0.00 0.00 0.00 48 1003.5
20260504190537 81 225 1.0 3.0 0.00 0.00 0.00 46 1003.6
20260504185557 80 248 11.0 13.0 0.00 0.00 0.00 47 1003.9
20260504184517 80 248 8.0 10.0 0.00 0.00 0.00 51 1004.0
20260504183517 80 203 9.0 12.0 0.00 0.00 0.00 49 1004.0
20260504182517 79 203 7.0 10.0 0.00 0.00 0.00 48 1004.2
20260504181517 78 225 6.0 8.0 0.00 0.00 0.00 50 1004.1
20260504180517 77 203 6.0 8.0 0.00 0.00 0.00 51 1004.2
20260504175517 77 203 8.0 10.0 0.00 0.00 0.00 51 1004.1
20260504174537 78 203 8.0 12.0 0.00 0.00 0.00 54 1004.1
20260504173517 77 225 10.0 14.0 0.00 0.00 0.00 51 1004.2
20260504172517 77 225 11.0 14.0 0.00 0.00 0.00 51 1004.3
20260504171517 76 203 8.0 10.0 0.00 0.00 0.00 52 1004.1
20260504170537 75 248 9.0 15.0 0.00 0.00 0.00 53 1004.3
20260504150557 70 225 11.0 15.0 0.00 0.00 0.00 57 1003.8
20260504140517 68 225 12.0 15.0 0.00 0.00 0.00 59 1004.1
20260504130516 64 203 15.0 19.0 0.00 0.00 0.00 61 1004.2
20260504110516 63 203 10.0 14.0 0.00 0.00 0.00 59 1004.5
20260504100516 65 203 11.0 15.0 0.00 0.00 0.00 55 1005.0
20260504081516 67 203 16.0 21.0 0.00 0.00 0.00 52 1006.0
20260504080516 67 203 14.0 19.0 0.00 0.00 0.00 51 1006.1
20260504050516 70 203 15.0 21.0 0.00 0.00 0.00 46 1007.9
20260504045517 70 203 13.0 21.0 0.00 0.00 0.00 46 1007.8
20260504044517 71 203 13.0 17.0 0.00 0.00 0.00 45 1007.9
20260504043517 71 180 13.0 20.0 0.00 0.00 0.00 44 1008.0
20260504042515 71 203 13.0 18.0 0.00 0.00 0.00 44 1007.8
20260504041517 71 203 14.0 20.0 0.00 0.00 0.00 44 1008.0
20260504040517 71 180 11.0 13.0 0.00 0.00 0.00 44 1007.9
20260504035517 71 180 10.0 15.0 0.00 0.00 0.00 44 1008.0
20260504034517 71 203 11.0 14.0 0.00 0.00 0.00 44 1007.8
20260504033557 71 203 11.0 16.0 0.00 0.00 0.00 44 1007.7
20260504032517 70 180 10.0 14.0 0.00 0.00 0.00 44 1007.7
20260504031537 70 180 7.0 11.0 0.00 0.00 0.00 44 1008.0
20260504030517 71 158 6.0 9.0 0.00 0.00 0.00 43 1007.9
20260504025516 72 180 6.0 10.0 0.00 0.00 0.00 41 1008.0
20260504024517 73 180 7.0 10.0 0.00 0.00 0.00 40 1008.0
20260504023517 73 180 8.0 12.0 0.00 0.00 0.00 39 1007.8
20260504022517 73 180 9.0 11.0 0.00 0.00 0.00 39 1007.6
20260504021516 73 180 7.0 10.0 0.00 0.00 0.00 38 1007.5
20260504020516 73 180 7.0 9.0 0.00 0.00 0.00 38 1007.3
20260504015517 74 203 7.0 9.0 0.00 0.00 0.00 38 1007.5
20260504014557 75 180 8.0 10.0 0.00 0.00 0.00 37 1007.4
20260504013517 75 203 7.0 11.0 0.00 0.00 0.00 36 1007.3
20260504012517 76 203 7.0 10.0 0.00 0.00 0.00 35 1007.2
20260504011536 77 203 8.0 10.0 0.00 0.00 0.00 34 1007.3
20260504010517 77 203 7.0 10.0 0.00 0.00 0.00 34 1007.3
20260504005516 78 203 9.0 11.0 0.00 0.00 0.00 33 1007.3
20260504004516 79 203 8.0 10.0 0.00 0.00 0.00 32 1007.3
20260504003537 79 203 10.0 14.0 0.00 0.00 0.00 31 1007.3
20260504002536 80 203 8.0 13.0 0.00 0.00 0.00 30 1007.5
20260504001516 81 203 12.0 18.0 0.00 0.00 0.00 30 1007.5
20260504000516 82 203 12.0 17.0 0.00 0.00 0.00 31 1007.6
20260503235516 82 203 14.0 20.0 0.00 0.00 0.00 31 1007.8